Showing default

LUR-1, 60506

Orbit data source: Space-Track

LUR-1, 60506 is a Spanish payload satellite in SSO that was launched on Fri, 16 Aug 2024 UTC via an FALCON 9 launch vehicle from the Air Force Western Test Range (AFWTR). Payload-class satellites include a variety of spacecraft equipped with specific instruments for various scientific and technological missions. These include communications satellites like Starlink; space stations such as the ISS; scientific satellites like the Hubble; Earth observation satellites from companies like Planet Labs, Umbra, and HawkEye 360; GPS; miniature CubeSats for education and research; and military/defense satellites.

Loading next visibility...
Identifier
60506, 2024-149AQ
Orbit
SSO
Country
Flag of ESES / SPN
Related business
Manufacturer
AVS
Mission
Operational Commercial Imaging
Bus & Motor
LUR, Unknown motor
Mass
57 kg wet, 57 kg dry
Launch date (UTC)
2024-08-16 (1 year ago)
Launch vehicle
FALCON 9
Launch site
Air Force Western Test Range (AFWTR)
Object type
Payload
Rocket body
Debris
Shape & HBR
Box, 0.3 m
Radar Cross Section
0.275 m², Medium (>0.1 m² and < 1m²)

Expand to show TLE details & history
Last TLE update: 10 hours ago

TLE from 10 hours ago
0 LUR-1
1 60506U 24149AQ  26036.19061116  .00010697  00000-0  39316-3 0  9997
2 60506  97.3853 116.1058 0005470  62.4799 297.6996 15.28070397 81806
Epoch: 2026-02-05T04:34Z
TLE epoch observation values (Epoch: 2026-02-05T04:34:28.804Z)
Latitude
Longitude
-87.86061°
Altitude
482.94 km
Speed
7.625 km/s
True Right ascension
07h 44m 25s
True Declination
0° 00' 00"
Sunlit
Object was in full shadow at epoch
Visualization orbit readout
Latitude
Unknown
Longitude
Unknown
Altitude
Unknown
Speed
Unknown
Apparent Right ascension
Unknown
Apparent Declination
Unknown
Sunlit
N/A
Visualization observer readout
Local Sidereal Time
16:57:21
Azimuth
Unknown
Elevation
Unknown
Doppler factor
Unknown
Orbital elements
Apogee altitude
482.286 km
Perigee altitude
474.785 km
Semi-major axis
6,856.672 km
Eccentricity
0.00055
Inclination
97.3853°
RAAN
116.1058°
Arg. of periapsis
62.4799°
True anomaly
297.64408°
Mean anomaly
297.6996°
Eccentric anomaly
297.67184°
Mean motion
3.82273 °/min
Orbital period
94.17 mins
BSTAR
0.00039316
Loading maneuver chart data...
Computing Atmospheric mass density...
Loading historical data...
Loading historical data...
Loading historical data...
Loading historical data...
Loading historical data...
Loading historical data...
Loading historical data...

Documentation

Showing up to 5 results
|